Location: Unspecified
(0.0000°N, 0.0000°E)
Time: 16:21:01
(UTC+00:00)

Courier 1B Rocket - Pass Details

Date: 22 November 2019
Orbit: 920 x 1202 km, 28.2° (Epoch: 12 December)

Event Time Altitude Azimuth Distance (km) Brightness Sun altitude
Rises 22:46:45 0° 283° (WNW) 4,091 - -65.1°
Reaches altitude 10° 22:49:50 10° 275° (W) 3,123 - -65.5°
Maximum altitude 22:56:58 38° 209° (SSW) 1,700 - -66.5°
Drops below altitude 10° 23:03:51 10° 143° (SE) 3,013 - -67.3°
Sets 23:06:48 0° 135° (SE) 3,933 - -67.6°
